Location: Lafig�re
(44.4503°N, 4.0357°E)
Time: 17:10:17
(UTC+00:00)

deb Explorer IX - Pass Details

Date: 27 January 2021
Orbit: 537 x 1102 km, 38.8° (Epoch: 04 March)

Event Time Altitude Azimuth Distance (km) Brightness Sun altitude
Rises 15:07:27 0° 216° (SW) 3,885 ? 13.7°
Reaches altitude 10° 15:10:47 10° 204° (SSW) 2,894 ? 13.2°
Maximum altitude 15:16:19 25° 153° (SSE) 1,919 ? 12.5°
Drops below altitude 10° 15:21:27 10° 101° (E) 2,662 ? 11.8°
Sets 15:24:21 0° 88° (E) 3,513 ? 11.4°
